Time,TemperatureF,DewpointF,PressureIn,WindDirection,WindDirectionDegrees,WindSpeedMPH,WindSpeedGustMPH,Humidity,HourlyPrecipIn,Conditions,Clouds,dailyrainin,SoftwareType,DateUTC
2013-05-01 00:04:00,73.1,13.3,29.63,SSE,164,6.0,9.0,10,0.00,,,0.00,WeatherTracker,2013-05-01 06:04:00,
2013-05-01 00:09:00,72.8,13.1,29.64,SSW,197,3.0,10.0,10,0.00,,,0.00,WeatherTracker,2013-05-01 06:09:00,
2013-05-01 00:14:00,72.7,13.0,29.64,SSW,201,3.0,10.0,10,0.00,,,0.00,WeatherTracker,2013-05-01 06:14:00,
2013-05-01 00:19:00,72.4,12.8,29.64,SE,131,1.0,8.0,10,0.00,,,0.00,WeatherTracker,2013-05-01 06:19:00,
2013-05-01 00:24:00,72.2,12.6,29.64,ESE,110,2.0,10.0,10,0.00,,,0.00,WeatherTracker,2013-05-01 06:24:00,
2013-05-01 00:29:00,72.3,12.7,29.64,SE,126,5.0,13.0,10,0.00,,,0.00,WeatherTracker,2013-05-01 06:29:00,
2013-05-01 00:34:00,72.2,14.8,29.64,South,185,5.0,13.0,11,0.00,,,0.00,WeatherTracker,2013-05-01 06:34:00,
2013-05-01 00:39:00,72.1,14.7,29.64,SE,136,6.0,13.0,11,0.00,,,0.00,WeatherTracker,2013-05-01 06:39:00,
2013-05-01 00:44:00,71.7,14.4,29.65,SE,140,1.0,13.0,11,0.00,,,0.00,WeatherTracker,2013-05-01 06:44:00,
2013-05-01 00:49:00,71.7,14.4,29.65,SE,138,2.0,15.0,11,0.00,,,0.00,WeatherTracker,2013-05-01 06:49:00,
2013-05-01 00:54:00,71.7,14.4,29.65,SE,143,3.0,15.0,11,0.00,,,0.00,WeatherTracker,2013-05-01 06:54:00,
2013-05-01 00:59:00,71.6,14.3,29.65,SE,140,1.0,10.0,11,0.00,,,0.00,WeatherTracker,2013-05-01 06:59:00,
2013-05-01 01:04:00,71.3,14.1,29.65,SE,140,2.0,10.0,11,0.00,,,0.00,WeatherTracker,2013-05-01 07:04:00,
2013-05-01 01:09:00,71.1,13.9,29.65,SE,128,2.0,8.0,11,0.00,,,0.00,WeatherTracker,2013-05-01 07:09:00,
2013-05-01 01:14:00,70.8,15.7,29.65,East,94,2.0,8.0,12,0.00,,,0.00,WeatherTracker,2013-05-01 07:14:00,
2013-05-01 01:19:00,70.6,15.5,29.65,ESE,113,1.0,7.0,12,0.00,,,0.00,WeatherTracker,2013-05-01 07:19:00,
2013-05-01 01:24:00,70.4,15.4,29.65,ESE,102,2.0,7.0,12,0.00,,,0.00,WeatherTracker,2013-05-01 07:24:00,
2013-05-01 01:29:00,70.4,15.4,29.65,SE,127,2.0,10.0,12,0.00,,,0.00,WeatherTracker,2013-05-01 07:29:00,
2013-05-01 01:35:00,70.1,15.1,29.65,SE,132,1.0,10.0,12,0.00,,,0.00,WeatherTracker,2013-05-01 07:35:00,
2013-05-01 01:40:00,69.7,14.8,29.65,East,90,3.0,3.0,12,0.00,,,0.00,WeatherTracker,2013-05-01 07:40:00,
2013-05-01 01:45:00,69.3,16.4,29.66,East,93,1.0,5.0,13,0.00,,,0.00,WeatherTracker,2013-05-01 07:45:00,
2013-05-01 01:50:00,68.8,16.0,29.65,ENE,76,0.0,5.0,13,0.00,,,0.00,WeatherTracker,2013-05-01 07:50:00,
2013-05-01 01:55:00,68.3,15.6,29.66,ENE,76,0.0,3.0,13,0.00,,,0.00,WeatherTracker,2013-05-01 07:55:00,
2013-05-01 02:00:00,67.8,16.9,29.66,ENE,76,0.0,3.0,14,0.00,,,0.00,WeatherTracker,2013-05-01 08:00:00,
2013-05-01 02:05:00,67.5,16.6,29.66,ENE,76,0.0,1.0,14,0.00,,,0.00,WeatherTracker,2013-05-01 08:05:00,
2013-05-01 02:10:00,67.1,16.3,29.67,ENE,76,0.0,1.0,14,0.00,,,0.00,WeatherTracker,2013-05-01 08:10:00,
2013-05-01 02:15:00,66.6,17.5,29.66,ENE,76,0.0,2.0,15,0.00,,,0.00,WeatherTracker,2013-05-01 08:15:00,
2013-05-01 02:20:00,65.9,17.0,29.67,ENE,76,1.0,3.0,15,0.00,,,0.00,WeatherTracker,2013-05-01 08:20:00,
2013-05-01 02:25:00,65.4,16.6,29.67,ENE,76,1.0,3.0,15,0.00,,,0.00,WeatherTracker,2013-05-01 08:25:00,
2013-05-01 02:30:00,66.0,17.0,29.67,ENE,76,1.0,3.0,15,0.00,,,0.00,WeatherTracker,2013-05-01 08:30:00,
2013-05-01 02:35:00,66.1,17.1,29.67,ENE,59,1.0,4.0,15,0.00,,,0.00,WeatherTracker,2013-05-01 08:35:00,
2013-05-01 02:40:00,66.1,17.1,29.67,ENE,59,2.0,4.0,15,0.00,,,0.00,WeatherTracker,2013-05-01 08:40:00,
2013-05-01 02:45:00,65.5,16.6,29.67,ENE,59,0.0,3.0,15,0.00,,,0.00,WeatherTracker,2013-05-01 08:45:00,
2013-05-01 02:50:00,64.3,18.6,29.67,ENE,59,0.0,2.0,17,0.00,,,0.00,WeatherTracker,2013-05-01 08:50:00,
2013-05-01 02:55:00,64.3,17.2,29.68,ENE,59,0.0,2.0,16,0.00,,,0.00,WeatherTracker,2013-05-01 08:55:00,
2013-05-01 03:00:00,64.1,17.0,29.68,WNW,286,0.0,5.0,16,0.00,,,0.00,WeatherTracker,2013-05-01 09:00:00,
2013-05-01 03:05:00,64.7,17.5,29.68,WNW,286,0.0,5.0,16,0.00,,,0.00,WeatherTracker,2013-05-01 09:05:00,
2013-05-01 03:10:00,64.7,17.5,29.68,WNW,299,0.0,3.0,16,0.00,,,0.00,WeatherTracker,2013-05-01 09:10:00,
2013-05-01 03:15:00,64.2,18.5,29.68,WNW,299,0.0,3.0,17,0.00,,,0.00,WeatherTracker,2013-05-01 09:15:00,
2013-05-01 03:21:00,64.0,18.3,29.68,WNW,301,1.0,3.0,17,0.00,,,0.00,WeatherTracker,2013-05-01 09:21:00,
2013-05-01 03:26:00,64.3,17.2,29.68,NW,318,1.0,5.0,16,0.00,,,0.00,WeatherTracker,2013-05-01 09:26:00,
2013-05-01 03:31:00,63.8,19.5,29.68,NW,313,2.0,5.0,18,0.00,,,0.00,WeatherTracker,2013-05-01 09:31:00,
2013-05-01 03:36:00,62.9,17.4,29.69,NW,319,3.0,4.0,17,0.00,,,0.00,WeatherTracker,2013-05-01 09:36:00,
2013-05-01 03:41:00,62.5,15.7,29.69,NW,319,0.0,5.0,16,0.00,,,0.00,WeatherTracker,2013-05-01 09:41:00,
2013-05-01 03:46:00,62.3,16.9,29.69,NW,319,1.0,5.0,17,0.00,,,0.00,WeatherTracker,2013-05-01 09:46:00,
2013-05-01 03:51:00,62.0,16.7,29.69,NW,319,3.0,4.0,17,0.00,,,0.00,WeatherTracker,2013-05-01 09:51:00,
2013-05-01 03:56:00,61.7,16.5,29.69,NW,319,0.0,3.0,17,0.00,,,0.00,WeatherTracker,2013-05-01 09:56:00,
2013-05-01 04:01:00,61.1,17.3,29.69,NW,319,0.0,3.0,18,0.00,,,0.00,WeatherTracker,2013-05-01 10:01:00,
2013-05-01 04:06:00,61.3,17.4,29.69,NW,319,0.0,2.0,18,0.00,,,0.00,WeatherTracker,2013-05-01 10:06:00,
2013-05-01 04:11:00,61.4,16.2,29.69,NW,319,0.0,2.0,17,0.00,,,0.00,WeatherTracker,2013-05-01 10:11:00,
2013-05-01 04:16:00,61.4,17.5,29.69,NW,319,0.0,2.0,18,0.00,,,0.00,WeatherTracker,2013-05-01 10:16:00,
2013-05-01 04:21:00,61.3,17.4,29.70,NW,320,0.0,1.0,18,0.00,,,0.00,WeatherTracker,2013-05-01 10:21:00,
2013-05-01 04:26:00,61.4,17.5,29.70,NW,320,0.0,1.0,18,0.00,,,0.00,WeatherTracker,2013-05-01 10:26:00,
2013-05-01 04:31:00,61.9,16.6,29.69,NW,324,2.0,2.0,17,0.00,,,0.00,WeatherTracker,2013-05-01 10:31:00,
2013-05-01 04:36:00,62.2,16.9,29.70,NNE,26,2.0,2.0,17,0.00,,,0.00,WeatherTracker,2013-05-01 10:36:00,
2013-05-01 04:41:00,62.1,16.8,29.70,NNE,26,0.0,2.0,17,0.00,,,0.00,WeatherTracker,2013-05-01 10:41:00,
2013-05-01 04:46:00,62.1,16.8,29.70,NE,50,1.0,3.0,17,0.00,,,0.00,WeatherTracker,2013-05-01 10:46:00,
2013-05-01 04:51:00,62.2,18.2,29.70,NE,51,0.0,3.0,18,0.00,,,0.00,WeatherTracker,2013-05-01 10:51:00,
2013-05-01 04:56:00,62.2,16.9,29.70,East,80,1.0,3.0,17,0.00,,,0.00,WeatherTracker,2013-05-01 10:56:00,
2013-05-01 05:01:00,62.8,17.3,29.71,East,80,1.0,3.0,17,0.00,,,0.00,WeatherTracker,2013-05-01 11:01:00,
2013-05-01 05:06:00,62.9,17.4,29.71,East,80,1.0,3.0,17,0.00,,,0.00,WeatherTracker,2013-05-01 11:06:00,
2013-05-01 05:11:00,63.0,17.5,29.71,East,80,0.0,3.0,17,0.00,,,0.00,WeatherTracker,2013-05-01 11:11:00,
2013-05-01 05:16:00,63.1,17.6,29.71,East,80,0.0,3.0,17,0.00,,,0.00,WeatherTracker,2013-05-01 11:16:00,
2013-05-01 05:21:00,63.0,17.5,29.71,East,80,0.0,2.0,17,0.00,,,0.00,WeatherTracker,2013-05-01 11:21:00,
2013-05-01 05:26:00,63.0,17.5,29.71,East,80,0.0,1.0,17,0.00,,,0.00,WeatherTracker,2013-05-01 11:26:00,
2013-05-01 05:31:00,62.7,17.3,29.72,East,80,0.0,1.0,17,0.00,,,0.00,WeatherTracker,2013-05-01 11:31:00,
2013-05-01 05:36:00,62.7,17.3,29.72,East,80,1.0,2.0,17,0.00,,,0.00,WeatherTracker,2013-05-01 11:36:00,
2013-05-01 05:41:00,62.9,17.4,29.72,East,82,0.0,2.0,17,0.00,,,0.00,WeatherTracker,2013-05-01 11:41:00,
2013-05-01 05:47:00,62.5,17.1,29.72,East,82,0.0,2.0,17,0.00,,,0.00,WeatherTracker,2013-05-01 11:47:00,
2013-05-01 05:52:00,62.1,18.1,29.73,East,82,0.0,2.0,18,0.00,,,0.00,WeatherTracker,2013-05-01 11:52:00,
2013-05-01 05:57:00,62.0,18.0,29.73,East,82,0.0,2.0,18,0.00,,,0.00,WeatherTracker,2013-05-01 11:57:00,
2013-05-01 06:02:00,61.7,17.8,29.73,East,82,0.0,2.0,18,0.00,,,0.00,WeatherTracker,2013-05-01 12:02:00,
2013-05-01 06:07:00,61.6,17.7,29.73,East,82,0.0,1.0,18,0.00,,,0.00,WeatherTracker,2013-05-01 12:07:00,
2013-05-01 06:12:00,61.1,18.5,29.73,East,82,0.0,1.0,19,0.00,,,0.00,WeatherTracker,2013-05-01 12:12:00,
2013-05-01 06:17:00,60.5,18.0,29.74,East,82,0.0,1.0,19,0.00,,,0.00,WeatherTracker,2013-05-01 12:17:00,
2013-05-01 06:22:00,60.4,18.0,29.74,East,82,0.0,1.0,19,0.00,,,0.00,WeatherTracker,2013-05-01 12:22:00,
2013-05-01 06:27:00,60.2,17.8,29.74,East,82,0.0,2.0,19,0.00,,,0.00,WeatherTracker,2013-05-01 12:27:00,
2013-05-01 06:32:00,60.0,17.6,29.74,East,82,0.0,2.0,19,0.00,,,0.00,WeatherTracker,2013-05-01 12:32:00,
2013-05-01 06:37:00,60.5,18.0,29.74,NNE,25,1.0,2.0,19,0.00,,,0.00,WeatherTracker,2013-05-01 12:37:00,
2013-05-01 06:42:00,60.7,18.2,29.74,NE,34,1.0,3.0,19,0.00,,,0.00,WeatherTracker,2013-05-01 12:42:00,
2013-05-01 06:47:00,60.9,18.4,29.74,NE,39,0.0,3.0,19,0.00,,,0.00,WeatherTracker,2013-05-01 12:47:00,
2013-05-01 06:52:00,61.1,18.5,29.75,NNE,28,1.0,3.0,19,0.00,,,0.00,WeatherTracker,2013-05-01 12:52:00,
2013-05-01 06:57:00,61.1,18.5,29.75,NNE,28,1.0,3.0,19,0.00,,,0.00,WeatherTracker,2013-05-01 12:57:00,
2013-05-01 07:02:00,61.2,18.6,29.75,ENE,76,0.0,3.0,19,0.00,,,0.00,WeatherTracker,2013-05-01 13:02:00,
2013-05-01 07:07:00,61.3,18.7,29.75,East,101,0.0,3.0,19,0.00,,,0.00,WeatherTracker,2013-05-01 13:07:00,
2013-05-01 07:12:00,61.3,18.7,29.75,East,90,0.0,2.0,19,0.00,,,0.00,WeatherTracker,2013-05-01 13:12:00,
2013-05-01 07:17:00,61.3,18.7,29.76,East,90,2.0,2.0,19,0.00,,,0.00,WeatherTracker,2013-05-01 13:17:00,
2013-05-01 07:22:00,61.1,18.5,29.76,East,84,0.0,5.0,19,0.00,,,0.00,WeatherTracker,2013-05-01 13:22:00,
2013-05-01 07:27:00,61.1,19.7,29.76,East,84,0.0,5.0,20,0.00,,,0.00,WeatherTracker,2013-05-01 13:27:00,
2013-05-01 07:32:00,61.3,18.7,29.76,East,84,1.0,2.0,19,0.00,,,0.00,WeatherTracker,2013-05-01 13:32:00,
2013-05-01 07:37:00,61.4,18.8,29.77,East,84,0.0,2.0,19,0.00,,,0.00,WeatherTracker,2013-05-01 13:37:00,
2013-05-01 07:42:00,61.3,19.9,29.77,East,84,0.0,1.0,20,0.00,,,0.00,WeatherTracker,2013-05-01 13:42:00,
2013-05-01 07:47:00,61.3,19.9,29.77,East,84,0.0,2.0,20,0.00,,,0.00,WeatherTracker,2013-05-01 13:47:00,
2013-05-01 07:53:00,61.3,21.0,29.77,East,84,0.0,2.0,21,0.00,,,0.00,WeatherTracker,2013-05-01 13:53:00,
2013-05-01 07:58:00,62.0,20.5,29.77,North,9,2.0,3.0,20,0.00,,,0.00,WeatherTracker,2013-05-01 13:58:00,
2013-05-01 08:03:00,62.0,19.3,29.78,NW,325,2.0,5.0,19,0.00,,,0.00,WeatherTracker,2013-05-01 14:03:00,
2013-05-01 08:08:00,62.2,19.4,29.78,NW,313,3.0,5.0,19,0.00,,,0.00,WeatherTracker,2013-05-01 14:08:00,
2013-05-01 08:13:00,62.9,20.0,29.78,NW,315,2.0,5.0,19,0.00,,,0.00,WeatherTracker,2013-05-01 14:13:00,
2013-05-01 08:18:00,63.6,20.6,29.78,NW,315,2.0,4.0,19,0.00,,,0.00,WeatherTracker,2013-05-01 14:18:00,
2013-05-01 08:23:00,64.8,21.6,29.78,NW,315,2.0,4.0,19,0.00,,,0.00,WeatherTracker,2013-05-01 14:23:00,
2013-05-01 08:28:00,65.8,19.8,29.78,NW,311,5.0,5.0,17,0.00,,,0.00,WeatherTracker,2013-05-01 14:28:00,
2013-05-01 08:33:00,66.3,18.8,29.78,NNW,332,2.0,5.0,16,0.00,,,0.00,WeatherTracker,2013-05-01 14:33:00,
2013-05-01 08:38:00,67.4,19.7,29.78,North,351,4.0,5.0,16,0.00,,,0.00,WeatherTracker,2013-05-01 14:38:00,
2013-05-01 08:43:00,67.6,18.3,29.79,East,86,0.0,8.0,15,0.00,,,0.00,WeatherTracker,2013-05-01 14:43:00,
2013-05-01 08:48:00,68.2,17.2,29.78,ESE,119,1.0,8.0,14,0.00,,,0.00,WeatherTracker,2013-05-01 14:48:00,
2013-05-01 08:53:00,68.7,17.6,29.78,East,98,1.0,5.0,14,0.00,,,0.00,WeatherTracker,2013-05-01 14:53:00,
2013-05-01 08:58:00,69.5,16.5,29.78,East,98,2.0,5.0,13,0.00,,,0.00,WeatherTracker,2013-05-01 14:58:00,
2013-05-01 09:03:00,69.2,16.3,29.78,East,98,0.0,5.0,13,0.00,,,0.00,WeatherTracker,2013-05-01 15:03:00,
2013-05-01 09:08:00,70.1,17.0,29.78,NNE,14,2.0,5.0,13,0.00,,,0.00,WeatherTracker,2013-05-01 15:08:00,
2013-05-01 09:13:00,70.1,18.7,29.78,ENE,78,3.0,6.0,14,0.00,,,0.00,WeatherTracker,2013-05-01 15:13:00,
2013-05-01 09:18:00,70.1,17.0,29.79,North,349,0.0,6.0,13,0.00,,,0.00,WeatherTracker,2013-05-01 15:18:00,
2013-05-01 09:23:00,70.7,17.5,29.78,SSE,150,0.0,6.0,13,0.00,,,0.00,WeatherTracker,2013-05-01 15:23:00,
2013-05-01 09:28:00,71.7,16.4,29.78,SSE,148,0.0,5.0,12,0.00,,,0.00,WeatherTracker,2013-05-01 15:28:00,
2013-05-01 09:33:00,71.4,16.2,29.78,SSE,148,0.0,4.0,12,0.00,,,0.00,WeatherTracker,2013-05-01 15:33:00,
2013-05-01 09:38:00,72.6,17.1,29.78,WSW,251,0.0,3.0,12,0.00,,,0.00,WeatherTracker,2013-05-01 15:38:00,
2013-05-01 09:44:00,72.2,16.8,29.78,WSW,258,2.0,3.0,12,0.00,,,0.00,WeatherTracker,2013-05-01 15:44:00,
2013-05-01 09:49:00,72.2,16.8,29.78,North,10,5.0,5.0,12,0.00,,,0.00,WeatherTracker,2013-05-01 15:49:00,
2013-05-01 09:54:00,72.0,16.6,29.78,NNE,25,1.0,5.0,12,0.00,,,0.00,WeatherTracker,2013-05-01 15:54:00,
2013-05-01 09:59:00,72.4,16.9,29.78,East,99,1.0,5.0,12,0.00,,,0.00,WeatherTracker,2013-05-01 15:59:00,
2013-05-01 10:04:00,74.3,16.4,29.78,East,99,2.0,4.0,11,0.00,,,0.00,WeatherTracker,2013-05-01 16:04:00,
2013-05-01 10:09:00,74.2,16.3,29.78,NE,39,2.0,5.0,11,0.00,,,0.00,WeatherTracker,2013-05-01 16:09:00,
2013-05-01 10:14:00,74.2,18.3,29.78,ESE,121,0.0,5.0,12,0.00,,,0.00,WeatherTracker,2013-05-01 16:14:00,
2013-05-01 10:19:00,74.6,16.6,29.78,SSE,167,0.0,4.0,11,0.00,,,0.00,WeatherTracker,2013-05-01 16:19:00,
2013-05-01 10:24:00,73.7,17.9,29.78,SSE,155,0.0,3.0,12,0.00,,,0.00,WeatherTracker,2013-05-01 16:24:00,
2013-05-01 10:29:00,74.3,16.4,29.78,NW,311,3.0,6.0,11,0.00,,,0.00,WeatherTracker,2013-05-01 16:29:00,
2013-05-01 10:34:00,75.6,17.4,29.77,NE,38,0.0,7.0,11,0.00,,,0.00,WeatherTracker,2013-05-01 16:34:00,
2013-05-01 10:39:00,75.6,17.4,29.77,NNE,30,3.0,7.0,11,0.00,,,0.00,WeatherTracker,2013-05-01 16:39:00,
2013-05-01 10:44:00,75.3,15.0,29.77,ESE,104,2.0,9.0,10,0.00,,,0.00,WeatherTracker,2013-05-01 16:44:00,
2013-05-01 10:49:00,76.2,15.7,29.77,SE,138,1.0,10.0,10,0.00,,,0.00,WeatherTracker,2013-05-01 16:49:00,
2013-05-01 10:54:00,76.3,15.7,29.77,West,277,0.0,10.0,10,0.00,,,0.00,WeatherTracker,2013-05-01 16:54:00,
2013-05-01 10:59:00,77.4,18.8,29.77,NW,325,3.0,7.0,11,0.00,,,0.00,WeatherTracker,2013-05-01 16:59:00,
2013-05-01 11:04:00,77.3,14.1,29.77,NNE,29,1.0,6.0,9,0.00,,,0.00,WeatherTracker,2013-05-01 17:04:00,
2013-05-01 11:09:00,77.7,16.8,29.77,NNW,332,0.0,8.0,10,0.00,,,0.00,WeatherTracker,2013-05-01 17:09:00,
2013-05-01 11:14:00,77.8,14.5,29.77,ESE,122,2.0,8.0,9,0.00,,,0.00,WeatherTracker,2013-05-01 17:14:00,
2013-05-01 11:19:00,77.7,16.8,29.77,East,84,5.0,8.0,10,0.00,,,0.00,WeatherTracker,2013-05-01 17:19:00,
2013-05-01 11:24:00,77.0,13.9,29.77,East,91,0.0,7.0,9,0.00,,,0.00,WeatherTracker,2013-05-01 17:24:00,
2013-05-01 11:30:00,78.7,17.6,29.77,ESE,113,3.0,7.0,10,0.00,,,0.00,WeatherTracker,2013-05-01 17:30:00,
2013-05-01 11:35:00,78.3,14.8,29.77,West,264,0.0,7.0,9,0.00,,,0.00,WeatherTracker,2013-05-01 17:35:00,
2013-05-01 11:40:00,78.8,15.2,29.77,NNW,327,1.0,7.0,9,0.00,,,0.00,WeatherTracker,2013-05-01 17:40:00,
2013-05-01 11:45:00,79.3,15.6,29.77,SE,132,2.0,5.0,9,0.00,,,0.00,WeatherTracker,2013-05-01 17:45:00,
2013-05-01 11:50:00,79.4,15.7,29.77,SSE,156,3.0,8.0,9,0.00,,,0.00,WeatherTracker,2013-05-01 17:50:00,
2013-05-01 11:55:00,79.7,13.2,29.76,ESE,105,5.0,8.0,8,0.00,,,0.00,WeatherTracker,2013-05-01 17:55:00,
2013-05-01 12:00:00,79.2,12.8,29.76,ESE,121,3.0,12.0,8,0.00,,,0.00,WeatherTracker,2013-05-01 18:00:00,
2013-05-01 12:05:00,80.2,13.6,29.76,ESE,121,5.0,12.0,8,0.00,,,0.00,WeatherTracker,2013-05-01 18:05:00,
2013-05-01 12:10:00,79.8,13.3,29.76,SSE,147,5.0,9.0,8,0.00,,,0.00,WeatherTracker,2013-05-01 18:10:00,
2013-05-01 12:15:00,80.4,13.7,29.76,West,263,5.0,9.0,8,0.00,,,0.00,WeatherTracker,2013-05-01 18:15:00,
2013-05-01 12:20:00,80.5,13.8,29.76,ESE,105,1.0,10.0,8,0.00,,,0.00,WeatherTracker,2013-05-01 18:20:00,
2013-05-01 12:25:00,80.8,14.0,29.76,ESE,109,2.0,10.0,8,0.00,,,0.00,WeatherTracker,2013-05-01 18:25:00,
2013-05-01 12:30:00,81.6,14.6,29.76,SE,138,2.0,8.0,8,0.00,,,0.00,WeatherTracker,2013-05-01 18:30:00,
2013-05-01 12:35:00,81.4,14.5,29.75,SE,129,1.0,10.0,8,0.00,,,0.00,WeatherTracker,2013-05-01 18:35:00,
2013-05-01 12:40:00,82.1,15.0,29.75,SSW,201,4.0,10.0,8,0.00,,,0.00,WeatherTracker,2013-05-01 18:40:00,
2013-05-01 12:45:00,82.4,12.2,29.75,West,267,3.0,8.0,7,0.00,,,0.00,WeatherTracker,2013-05-01 18:45:00,
2013-05-01 12:50:00,81.2,14.3,29.74,East,90,2.0,8.0,8,0.00,,,0.00,WeatherTracker,2013-05-01 18:50:00,
2013-05-01 12:55:00,82.1,15.0,29.75,SE,146,6.0,9.0,8,0.00,,,0.00,WeatherTracker,2013-05-01 18:55:00,
2013-05-01 13:00:00,82.0,14.9,29.75,SE,142,4.0,15.0,8,0.00,,,0.00,WeatherTracker,2013-05-01 19:00:00,
2013-05-01 13:05:00,82.4,15.2,29.74,East,95,3.0,15.0,8,0.00,,,0.00,WeatherTracker,2013-05-01 19:05:00,
2013-05-01 13:11:00,83.5,16.0,29.74,SSE,148,7.0,9.0,8,0.00,,,0.00,WeatherTracker,2013-05-01 19:11:00,
2013-05-01 13:16:00,82.8,15.5,29.74,SSE,164,8.0,13.0,8,0.00,,,0.00,WeatherTracker,2013-05-01 19:16:00,
2013-05-01 13:21:00,82.4,15.2,29.74,SSE,154,5.0,13.0,8,0.00,,,0.00,WeatherTracker,2013-05-01 19:21:00,
2013-05-01 13:26:00,82.9,15.6,29.74,ESE,121,4.0,12.0,8,0.00,,,0.00,WeatherTracker,2013-05-01 19:26:00,
2013-05-01 13:31:00,82.7,12.4,29.74,East,98,5.0,10.0,7,0.00,,,0.00,WeatherTracker,2013-05-01 19:31:00,
2013-05-01 13:36:00,83.0,15.6,29.74,SE,134,2.0,10.0,8,0.00,,,0.00,WeatherTracker,2013-05-01 19:36:00,
2013-05-01 13:41:00,83.1,15.7,29.74,ESE,105,3.0,13.0,8,0.00,,,0.00,WeatherTracker,2013-05-01 19:41:00,
2013-05-01 13:46:00,83.0,15.6,29.74,South,188,3.0,14.0,8,0.00,,,0.00,WeatherTracker,2013-05-01 19:46:00,
2013-05-01 13:51:00,83.4,15.9,29.74,SE,130,3.0,14.0,8,0.00,,,0.00,WeatherTracker,2013-05-01 19:51:00,
2013-05-01 13:56:00,83.8,16.2,29.74,ESE,117,4.0,11.0,8,0.00,,,0.00,WeatherTracker,2013-05-01 19:56:00,
2013-05-01 14:01:00,83.7,16.2,29.74,SE,144,6.0,13.0,8,0.00,,,0.00,WeatherTracker,2013-05-01 20:01:00,
2013-05-01 14:06:00,82.9,15.6,29.74,East,82,6.0,13.0,8,0.00,,,0.00,WeatherTracker,2013-05-01 20:06:00,
2013-05-01 14:11:00,83.4,15.9,29.74,South,170,1.0,11.0,8,0.00,,,0.00,WeatherTracker,2013-05-01 20:11:00,
2013-05-01 14:16:00,83.5,13.0,29.74,SE,126,4.0,11.0,7,0.00,,,0.00,WeatherTracker,2013-05-01 20:16:00,
2013-05-01 14:21:00,83.4,12.9,29.73,SE,146,2.0,13.0,7,0.00,,,0.00,WeatherTracker,2013-05-01 20:21:00,
2013-05-01 14:26:00,84.5,13.7,29.74,ESE,123,5.0,13.0,7,0.00,,,0.00,WeatherTracker,2013-05-01 20:26:00,
2013-05-01 14:31:00,84.1,13.4,29.73,South,171,6.0,13.0,7,0.00,,,0.00,WeatherTracker,2013-05-01 20:31:00,
2013-05-01 14:36:00,83.8,13.2,29.74,SE,132,5.0,14.0,7,0.00,,,0.00,WeatherTracker,2013-05-01 20:36:00,
2013-05-01 14:41:00,83.8,13.2,29.73,SSE,168,5.0,14.0,7,0.00,,,0.00,WeatherTracker,2013-05-01 20:41:00,
2013-05-01 14:46:00,84.0,13.3,29.73,SSE,167,5.0,13.0,7,0.00,,,0.00,WeatherTracker,2013-05-01 20:46:00,
2013-05-01 14:51:00,84.0,13.3,29.73,ESE,120,2.0,8.0,7,0.00,,,0.00,WeatherTracker,2013-05-01 20:51:00,
2013-05-01 14:57:00,83.8,13.2,29.73,East,96,3.0,11.0,7,0.00,,,0.00,WeatherTracker,2013-05-01 20:57:00,
2013-05-01 15:02:00,84.6,13.8,29.72,SSW,194,3.0,18.0,7,0.00,,,0.00,WeatherTracker,2013-05-01 21:02:00,
2013-05-01 15:07:00,84.9,10.5,29.73,SE,130,8.0,18.0,6,0.00,,,0.00,WeatherTracker,2013-05-01 21:07:00,
2013-05-01 15:12:00,84.5,10.2,29.73,East,87,8.0,14.0,6,0.00,,,0.00,WeatherTracker,2013-05-01 21:12:00,
2013-05-01 15:17:00,84.1,9.9,29.72,SSE,149,5.0,14.0,6,0.00,,,0.00,WeatherTracker,2013-05-01 21:17:00,
2013-05-01 15:22:00,84.5,10.2,29.72,ENE,70,9.0,13.0,6,0.00,,,0.00,WeatherTracker,2013-05-01 21:22:00,
2013-05-01 15:27:00,85.0,10.6,29.72,South,175,11.0,24.0,6,0.00,,,0.00,WeatherTracker,2013-05-01 21:27:00,
2013-05-01 15:32:00,85.0,10.6,29.72,ESE,107,8.0,24.0,6,0.00,,,0.00,WeatherTracker,2013-05-01 21:32:00,
2013-05-01 15:37:00,84.7,10.4,29.71,ESE,103,4.0,16.0,6,0.00,,,0.00,WeatherTracker,2013-05-01 21:37:00,
2013-05-01 15:42:00,84.8,13.9,29.71,SE,146,3.0,13.0,7,0.00,,,0.00,WeatherTracker,2013-05-01 21:42:00,
2013-05-01 15:47:00,85.7,11.1,29.71,ESE,119,3.0,13.0,6,0.00,,,0.00,WeatherTracker,2013-05-01 21:47:00,
2013-05-01 15:52:00,85.2,10.7,29.71,SSE,157,2.0,11.0,6,0.00,,,0.00,WeatherTracker,2013-05-01 21:52:00,
2013-05-01 15:57:00,85.8,11.2,29.70,SE,130,3.0,10.0,6,0.00,,,0.00,WeatherTracker,2013-05-01 21:57:00,
2013-05-01 16:02:00,85.4,10.9,29.70,South,175,2.0,8.0,6,0.00,,,0.00,WeatherTracker,2013-05-01 22:02:00,
2013-05-01 16:07:00,84.3,10.1,29.70,SSW,207,4.0,14.0,6,0.00,,,0.00,WeatherTracker,2013-05-01 22:07:00,
2013-05-01 16:12:00,84.5,10.2,29.70,SSE,151,3.0,14.0,6,0.00,,,0.00,WeatherTracker,2013-05-01 22:12:00,
2013-05-01 16:17:00,84.9,10.5,29.70,ESE,123,2.0,13.0,6,0.00,,,0.00,WeatherTracker,2013-05-01 22:17:00,
2013-05-01 16:22:00,84.9,10.5,29.70,SW,221,9.0,13.0,6,0.00,,,0.00,WeatherTracker,2013-05-01 22:22:00,
2013-05-01 16:27:00,85.3,10.8,29.70,ESE,118,5.0,13.0,6,0.00,,,0.00,WeatherTracker,2013-05-01 22:27:00,
2013-05-01 16:32:00,85.5,10.9,29.70,SSE,158,4.0,13.0,6,0.00,,,0.00,WeatherTracker,2013-05-01 22:32:00,
2013-05-01 16:37:00,84.5,10.2,29.70,SSE,149,6.0,12.0,6,0.00,,,0.00,WeatherTracker,2013-05-01 22:37:00,
2013-05-01 16:42:00,85.1,6.6,29.70,ESE,116,7.0,14.0,5,0.00,,,0.00,WeatherTracker,2013-05-01 22:42:00,
2013-05-01 16:47:00,84.6,6.3,29.70,SSE,148,6.0,15.0,5,0.00,,,0.00,WeatherTracker,2013-05-01 22:47:00,
2013-05-01 16:52:00,84.5,10.2,29.70,SSE,150,5.0,15.0,6,0.00,,,0.00,WeatherTracker,2013-05-01 22:52:00,
2013-05-01 16:57:00,84.7,10.4,29.70,South,174,10.0,15.0,6,0.00,,,0.00,WeatherTracker,2013-05-01 22:57:00,
2013-05-01 17:02:00,84.6,10.3,29.70,SE,137,2.0,16.0,6,0.00,,,0.00,WeatherTracker,2013-05-01 23:02:00,
2013-05-01 17:08:00,84.5,6.2,29.70,ESE,109,5.0,16.0,5,0.00,,,0.00,WeatherTracker,2013-05-01 23:08:00,
2013-05-01 17:13:00,84.2,10.0,29.70,SSE,165,4.0,15.0,6,0.00,,,0.00,WeatherTracker,2013-05-01 23:13:00,
2013-05-01 17:18:00,83.8,9.7,29.70,SSE,155,6.0,15.0,6,0.00,,,0.00,WeatherTracker,2013-05-01 23:18:00,
2013-05-01 17:23:00,84.3,6.1,29.71,SSE,152,7.0,15.0,5,0.00,,,0.00,WeatherTracker,2013-05-01 23:23:00,
2013-05-01 17:28:00,84.2,10.0,29.70,SSE,149,2.0,14.0,6,0.00,,,0.00,WeatherTracker,2013-05-01 23:28:00,
2013-05-01 17:33:00,83.6,9.6,29.70,East,79,3.0,13.0,6,0.00,,,0.00,WeatherTracker,2013-05-01 23:33:00,
2013-05-01 17:38:00,83.4,9.4,29.70,SSE,153,2.0,11.0,6,0.00,,,0.00,WeatherTracker,2013-05-01 23:38:00,
2013-05-01 17:43:00,83.9,9.8,29.70,South,188,11.0,11.0,6,0.00,,,0.00,WeatherTracker,2013-05-01 23:43:00,
2013-05-01 17:48:00,84.1,9.9,29.70,ESE,117,4.0,14.0,6,0.00,,,0.00,WeatherTracker,2013-05-01 23:48:00,
2013-05-01 17:53:00,83.9,9.8,29.71,SE,130,5.0,19.0,6,0.00,,,0.00,WeatherTracker,2013-05-01 23:53:00,
2013-05-01 17:58:00,83.1,12.7,29.71,SSE,148,5.0,19.0,7,0.00,,,0.00,WeatherTracker,2013-05-01 23:58:00,
2013-05-01 18:03:00,82.9,12.5,29.71,SSE,150,4.0,15.0,7,0.00,,,0.00,WeatherTracker,2013-05-02 00:03:00,
2013-05-01 18:08:00,83.0,12.6,29.71,SE,128,3.0,15.0,7,0.00,,,0.00,WeatherTracker,2013-05-02 00:08:00,
2013-05-01 18:13:00,83.1,12.7,29.71,SE,142,6.0,13.0,7,0.00,,,0.00,WeatherTracker,2013-05-02 00:13:00,
2013-05-01 18:18:00,82.4,12.2,29.71,SE,139,10.0,16.0,7,0.00,,,0.00,WeatherTracker,2013-05-02 00:18:00,
2013-05-01 18:23:00,82.1,11.9,29.72,SSW,198,4.0,16.0,7,0.00,,,0.00,WeatherTracker,2013-05-02 00:23:00,
2013-05-01 18:28:00,81.9,14.8,29.71,South,182,6.0,13.0,8,0.00,,,0.00,WeatherTracker,2013-05-02 00:28:00,
2013-05-01 18:33:00,81.9,14.8,29.71,South,182,7.0,14.0,8,0.00,,,0.00,WeatherTracker,2013-05-02 00:33:00,
2013-05-01 18:38:00,81.7,11.7,29.72,SE,134,2.0,14.0,7,0.00,,,0.00,WeatherTracker,2013-05-02 00:38:00,
2013-05-01 18:43:00,81.5,14.5,29.72,SSE,156,3.0,16.0,8,0.00,,,0.00,WeatherTracker,2013-05-02 00:43:00,
2013-05-01 18:48:00,81.0,14.2,29.73,SE,140,5.0,16.0,8,0.00,,,0.00,WeatherTracker,2013-05-02 00:48:00,
2013-05-01 18:53:00,81.0,14.2,29.72,SE,137,9.0,13.0,8,0.00,,,0.00,WeatherTracker,2013-05-02 00:53:00,
2013-05-01 18:58:00,80.7,13.9,29.73,SE,140,6.0,12.0,8,0.00,,,0.00,WeatherTracker,2013-05-02 00:58:00,
2013-05-01 19:03:00,80.4,13.7,29.73,ESE,119,3.0,12.0,8,0.00,,,0.00,WeatherTracker,2013-05-02 01:03:00,
2013-05-01 19:08:00,80.2,13.6,29.73,SSW,205,6.0,12.0,8,0.00,,,0.00,WeatherTracker,2013-05-02 01:08:00,
2013-05-01 19:13:00,80.0,13.4,29.73,SE,140,3.0,14.0,8,0.00,,,0.00,WeatherTracker,2013-05-02 01:13:00,
2013-05-01 19:18:00,79.7,15.9,29.74,SSE,161,3.0,14.0,9,0.00,,,0.00,WeatherTracker,2013-05-02 01:18:00,
2013-05-01 19:24:00,79.3,15.6,29.74,South,190,3.0,11.0,9,0.00,,,0.00,WeatherTracker,2013-05-02 01:24:00,
2013-05-01 19:29:00,79.1,15.4,29.74,SSE,152,4.0,12.0,9,0.00,,,0.00,WeatherTracker,2013-05-02 01:29:00,
2013-05-01 19:34:00,78.6,21.7,29.75,SSE,164,4.0,12.0,12,0.00,,,0.00,WeatherTracker,2013-05-02 01:34:00,
2013-05-01 19:39:00,78.0,23.2,29.75,SSW,194,0.0,9.0,13,0.00,,,0.00,WeatherTracker,2013-05-02 01:39:00,
2013-05-01 19:44:00,77.5,24.5,29.75,South,171,1.0,7.0,14,0.00,,,0.00,WeatherTracker,2013-05-02 01:44:00,
2013-05-01 19:49:00,76.9,24.1,29.76,South,190,2.0,6.0,14,0.00,,,0.00,WeatherTracker,2013-05-02 01:49:00,
2013-05-01 19:54:00,76.6,23.8,29.76,South,173,4.0,7.0,14,0.00,,,0.00,WeatherTracker,2013-05-02 01:54:00,
2013-05-01 19:59:00,76.2,23.5,29.77,North,9,2.0,7.0,14,0.00,,,0.00,WeatherTracker,2013-05-02 01:59:00,
2013-05-01 20:04:00,75.0,16.9,29.78,ENE,76,2.0,13.0,11,0.00,,,0.00,WeatherTracker,2013-05-02 02:04:00,
2013-05-01 20:09:00,73.9,18.1,29.78,ENE,73,2.0,13.0,12,0.00,,,0.00,WeatherTracker,2013-05-02 02:09:00,
2013-05-01 20:14:00,73.2,15.6,29.79,NNE,12,2.0,14.0,11,0.00,,,0.00,WeatherTracker,2013-05-02 02:14:00,
2013-05-01 20:19:00,72.7,15.2,29.80,North,5,2.0,14.0,11,0.00,,,0.00,WeatherTracker,2013-05-02 02:19:00,
2013-05-01 20:24:00,72.2,12.6,29.80,WNW,297,3.0,8.0,10,0.00,,,0.00,WeatherTracker,2013-05-02 02:24:00,
2013-05-01 20:29:00,71.7,12.2,29.81,SSE,163,3.0,8.0,10,0.00,,,0.00,WeatherTracker,2013-05-02 02:29:00,
2013-05-01 20:34:00,71.2,9.5,29.82,SSW,198,1.0,8.0,9,0.00,,,0.00,WeatherTracker,2013-05-02 02:34:00,
2013-05-01 20:39:00,70.6,9.0,29.83,West,269,1.0,8.0,9,0.00,,,0.00,WeatherTracker,2013-05-02 02:39:00,
2013-05-01 20:44:00,70.1,8.7,29.84,NW,306,2.0,8.0,9,0.00,,,0.00,WeatherTracker,2013-05-02 02:44:00,
2013-05-01 20:49:00,69.7,8.4,29.86,WNW,286,2.0,9.0,9,0.00,,,0.00,WeatherTracker,2013-05-02 02:49:00,
2013-05-01 20:54:00,69.3,8.1,29.88,NW,314,2.0,13.0,9,0.00,,,0.00,WeatherTracker,2013-05-02 02:54:00,
2013-05-01 20:59:00,69.0,5.3,29.89,WSW,242,4.0,13.0,8,0.00,,,0.00,WeatherTracker,2013-05-02 02:59:00,
2013-05-01 21:04:00,68.8,7.7,29.90,WSW,249,1.0,9.0,9,0.00,,,0.00,WeatherTracker,2013-05-02 03:04:00,
2013-05-01 21:09:00,68.4,4.8,29.91,WNW,298,1.0,8.0,8,0.00,,,0.00,WeatherTracker,2013-05-02 03:09:00,
2013-05-01 21:14:00,68.0,7.1,29.91,SW,235,1.0,8.0,9,0.00,,,0.00,WeatherTracker,2013-05-02 03:14:00,
2013-05-01 21:19:00,67.7,4.3,29.92,West,273,3.0,8.0,8,0.00,,,0.00,WeatherTracker,2013-05-02 03:19:00,
2013-05-01 21:24:00,67.6,4.2,29.93,WSW,246,0.0,8.0,8,0.00,,,0.00,WeatherTracker,2013-05-02 03:24:00,
2013-05-01 21:29:00,67.3,23.6,29.93,NW,320,5.0,10.0,19,0.00,,,0.00,WeatherTracker,2013-05-02 03:29:00,
2013-05-01 21:34:00,65.4,29.6,29.93,North,5,5.0,11.0,26,0.00,,,0.00,WeatherTracker,2013-05-02 03:34:00,
2013-05-01 21:40:00,64.6,24.9,29.94,West,277,3.0,12.0,22,0.00,,,0.00,WeatherTracker,2013-05-02 03:40:00,
2013-05-01 21:45:00,65.0,9.2,29.94,WSW,251,2.0,12.0,11,0.00,,,0.00,WeatherTracker,2013-05-02 03:45:00,
2013-05-01 21:50:00,65.4,2.6,29.95,West,262,5.0,7.0,8,0.00,,,0.00,WeatherTracker,2013-05-02 03:50:00,
2013-05-01 21:55:00,65.3,5.0,29.95,West,279,1.0,6.0,9,0.00,,,0.00,WeatherTracker,2013-05-02 03:55:00,
2013-05-01 22:00:00,65.1,2.4,29.95,WNW,286,1.0,6.0,8,0.00,,,0.00,WeatherTracker,2013-05-02 04:00:00,
2013-05-01 22:01:00,65.1,2.4,29.95,WNW,287,0.0,6.0,8,0.00,,,0.00,WeatherTracker,2013-05-02 04:01:00,
2013-05-01 22:03:00,65.1,2.4,29.95,SE,134,0.0,6.0,8,0.00,,,0.00,WeatherTracker,2013-05-02 04:03:00,
2013-05-01 22:08:00,64.8,4.7,29.95,SE,141,0.0,3.0,9,0.00,,,0.00,WeatherTracker,2013-05-02 04:08:00,
2013-05-01 22:13:00,64.5,6.7,29.95,SE,135,1.0,5.0,10,0.00,,,0.00,WeatherTracker,2013-05-02 04:13:00,
2013-05-01 22:18:00,63.9,10.3,29.96,SE,139,3.0,6.0,12,0.00,,,0.00,WeatherTracker,2013-05-02 04:18:00,
2013-05-01 22:23:00,63.8,1.4,29.96,SSE,160,1.0,6.0,8,0.00,,,0.00,WeatherTracker,2013-05-02 04:23:00,
2013-05-01 22:28:00,63.4,1.1,29.96,ENE,64,0.0,10.0,8,0.00,,,0.00,WeatherTracker,2013-05-02 04:28:00,
2013-05-01 22:33:00,63.0,-2.0,29.97,SE,130,7.0,10.0,7,0.00,,,0.00,WeatherTracker,2013-05-02 04:33:00,
2013-05-01 22:38:00,62.7,9.4,29.98,North,355,1.0,7.0,12,0.00,,,0.00,WeatherTracker,2013-05-02 04:38:00,
2013-05-01 22:43:00,60.9,26.7,29.98,NW,324,2.0,7.0,27,0.00,,,0.00,WeatherTracker,2013-05-02 04:43:00,
2013-05-01 22:48:00,59.6,26.5,29.99,NW,304,5.0,7.0,28,0.00,,,0.00,WeatherTracker,2013-05-02 04:48:00,
2013-05-01 22:53:00,58.5,27.2,29.99,NW,317,4.0,10.0,30,0.00,,,0.00,WeatherTracker,2013-05-02 04:53:00,
2013-05-01 22:58:00,57.3,29.2,29.99,NNW,339,6.0,14.0,34,0.00,,,0.00,WeatherTracker,2013-05-02 04:58:00,
2013-05-01 23:03:00,56.8,26.5,30.00,NNW,333,3.0,14.0,31,0.00,,,0.00,WeatherTracker,2013-05-02 05:03:00,
2013-05-01 23:08:00,56.3,28.3,30.00,NNE,17,5.0,12.0,34,0.00,,,0.00,WeatherTracker,2013-05-02 05:08:00,
2013-05-01 23:14:00,56.3,27.6,30.00,North,355,2.0,10.0,33,0.00,,,0.00,WeatherTracker,2013-05-02 05:14:00,
2013-05-01 23:19:00,56.0,28.0,30.01,NW,319,6.0,11.0,34,0.00,,,0.00,WeatherTracker,2013-05-02 05:19:00,
2013-05-01 23:24:00,55.3,28.8,30.01,NNW,336,4.0,11.0,36,0.00,,,0.00,WeatherTracker,2013-05-02 05:24:00,
2013-05-01 23:29:00,54.8,29.7,30.01,NNE,33,6.0,14.0,38,0.00,,,0.00,WeatherTracker,2013-05-02 05:29:00,
2013-05-01 23:34:00,54.3,29.9,30.02,NW,304,7.0,14.0,39,0.00,,,0.00,WeatherTracker,2013-05-02 05:34:00,
2013-05-01 23:39:00,53.7,30.0,30.02,NW,326,3.0,14.0,40,0.00,,,0.00,WeatherTracker,2013-05-02 05:39:00,
2013-05-01 23:44:00,53.4,29.7,30.02,North,9,3.0,14.0,40,0.00,,,0.00,WeatherTracker,2013-05-02 05:44:00,
2013-05-01 23:49:00,53.0,30.5,30.02,NNW,342,6.0,18.0,42,0.00,,,0.00,WeatherTracker,2013-05-02 05:49:00,
2013-05-01 23:54:00,52.6,30.2,30.02,NW,323,11.0,18.0,42,0.00,,,0.00,WeatherTracker,2013-05-02 05:54:00,
2013-05-01 23:59:00,52.4,30.0,30.03,NNW,340,12.0,15.0,42,0.00,,,0.00,WeatherTracker,2013-05-02 05:59:00,